Regional Weather Roundup
Issued by NWS

Home | Current Version | Previous Version | Text Only | Print | Product List | Glossary Off
Versions: 1 2 3 4 5 6 7 8 9 10 11 12 13 14 15 16 17 18 19 20 21 22 23 24 25 26 27 28 29 30 31 32 33 34 35 36 37 38 39 40 41 42 43 44 45 46 47 48 49 50

000
ASUS43 KMPX 050210
RWRMN
WEATHER ROUNDUP FOR MINNESOTA
NATIONAL WEATHER SERVICE TWIN CITIES/CHANHASSEN MN
900 PM CDT WED MAY 04 2016


NOTE: "FAIR" INDICATES FEW OR NO CLOUDS BELOW 12,000 FEET WITH NO
SIGNIFICANT WEATHER AND/OR OBSTRUCTIONS TO VISIBILITY. N/A MEANS
CURRENT SKY AND/OR WEATHER CONDITIONS ARE NOT AVAILABLE.

MNZ060>063-068>070-050300-
   Twin Cities Metro

CITY           SKY/WX    TMP DP  RH WIND       PRES   REMARKS
TWIN CITIES    PTCLDY    58  24  27 N5        29.96R
ST PAUL        CLEAR     60  24  25 N3        29.96R
CRYSTAL        CLEAR     59  22  24 N7        29.95R
BLAINE         CLEAR     55  27  33 CALM      29.96R
EDEN PRAIRIE   CLEAR     60  21  22 N5        29.95R
SOUTH ST PAUL  CLEAR     60  23  24 CALM      29.95R
LAKE ELMO      FAIR      55  27  33 CALM      29.97R
$$
MNZ001>005-007-008-013>017-022>024-027-028-050300-
   Northwest Minnesota

CITY           SKY/WX    TMP DP  RH WIND       PRES   REMARKS
BEMIDJI        CLEAR     55  23  29 CALM      29.98S
HALLOCK        PTCLDY    63  21  20 S8        29.91F
ROSEAU         PTCLDY    57  34  41 S5        29.94F
WARROAD        CLEAR     52  36  54 S5        29.95F
THIEF RVR FALL PTCLDY    63  21  20 CALM      29.97S
CROOKSTON      PTCLDY    63  30  29 CALM      29.96S
FOSSTON        PTCLDY    54  16  22 CALM      29.98S HAZE
DETROIT LAKES  CLEAR     59  28  31 CALM      29.99F
MOORHEAD       PTCLDY    64  27  24 CALM      29.97S
PARK RAPIDS    CLEAR     60  22  23 NE3       29.97S
MAHNOMEN       FAIR      59  27  29 W5        29.97S
$$
MNZ006-009>011-018-025>026-050300-
   North Central Minnesota

CITY           SKY/WX    TMP DP  RH WIND       PRES   REMARKS
BAUDETTE       CLOUDY    52  26  36 S5        29.94F
FLAG ISLAND    PTCLDY    48  37  66 S7        29.91F
INTL FALLS     CLEAR     47  23  38 CALM      29.94F
WASKISH        CLEAR     50  25  37 CALM      29.97F
BIG FORK       CLEAR     48  25  40 CALM      29.98R
LONGVILLE      CLEAR     48  25  40 CALM      29.98S
GRAND RAPIDS   CLEAR     52  19  28 CALM      29.98S
CRANE LAKE     PTCLDY    43  28  56 CALM      29.98S
ORR            PTCLDY    46  18  31 CALM      29.95S
COOK           PTCLDY    48  19  32 CALM      29.98S
WALKER         FAIR      54  21  28 CALM      29.98S
$$
MNZ012-019>021-037-050300-
   Northeast Minnesota

CITY           SKY/WX    TMP DP  RH WIND       PRES   REMARKS
DULUTH         CLEAR     46  24  42 E5        29.98R
ELY            CLEAR     45  25  45 CALM      29.96F
HIBBING        CLEAR     41  23  48 CALM      29.97R
EVELETH        CLEAR     48  19  32 CALM      29.98S
DULUTH HARBOR  CLEAR     41  36  81 E6        30.01R
TWO HARBORS    CLEAR     45  30  57 CALM      29.98R
SILVER BAY     CLEAR     37  30  75 CALM      29.98R
GRAND MARAIS     N/A     36  30  79 CALM      30.01R
G MARAIS ARPRT CLEAR     34  27  75 CALM      29.98S
$$
MNZ029>031-032-039>041-046>048-054>057-064-050300-
   West Central Minnesota

CITY           SKY/WX    TMP DP  RH WIND       PRES   REMARKS
FERGUS FALLS   PTCLDY    63  30  29 CALM      29.96S
WHEATON        CLEAR     63  34  34 CALM      30.00R
MORRIS         CLEAR     59  30  33 N8        29.98R
ALEXANDRIA     CLEAR     58  27  30 NW3       30.00R
ELBOW LAKE     FAIR      59  37  44 NW3       29.99S
WADENA         CLEAR     57  28  33 NW3       29.98R
GLENWOOD       CLEAR     55  27  33 NW5       29.99S
APPLETON       CLEAR     61  28  29 N6        29.98S
BENSON         PTCLDY    57  25  28 CALM      29.99R
ORTONVILLE     CLEAR     61  30  31 N3        29.98S
MADISON        CLEAR     61  27  27 N5        29.99R
WILLMAR        FAIR      57  28  33 NW7       30.00R
$$
MNZ033>034-036-042>043-049>051-058-059-050300-
   Central Minnesota

CITY           SKY/WX    TMP DP  RH WIND       PRES   REMARKS
ST CLOUD       CLEAR     55  25  31 CALM      29.97R
SAUK CENTRE    FAIR      55  29  36 CALM      29.98R
PAYNESVILLE    CLEAR     59  23  24 N3        29.98S
AITKIN         CLEAR     50  21  32 CALM      29.96R
PINE RIVER     CLEAR     52  28  40 CALM      30.01S
BRAINERD       CLEAR     54  25  32 N3        29.98S
STAPLES        CLEAR     57  21  24 CALM      29.98S
LONG PRAIRIE   FAIR      54  32  43 CALM      29.98S
LITTLE FALLS   CLEAR     52  27  37 CALM      29.98S
LITCHFIELD     CLEAR     57  32  38 CALM      29.98R
BUFFALO        CLEAR     56  24  28 N5        29.98R
MAPLE LAKE     CLEAR     55  31  39 CALM      29.98R
HUTCHINSON     PTCLDY    59  29  31 NE3       29.98R
$$
MNZ037-044-045-052-053-050300-
   East Central Minnesota

CITY           SKY/WX    TMP DP  RH WIND       PRES   REMARKS
PRINCETON      CLEAR     52  25  35 CALM      29.97S
MORA           CLEAR     52  27  37 CALM      29.98
CAMBRIDGE      CLEAR     55  34  44 CALM      29.95R
RUSH CITY      PTCLDY    50  28  42 CALM      29.96R
MOOSE LAKE     PTCLDY    52  27  37 NE3       29.96R
HINCKLEY       CLOUDY    52  25  35 CALM      29.96S
CLOQUET        CLEAR     46  25  42 CALM      29.98R
MCGREGOR       CLEAR     54  25  32 CALM      29.97S
$$
MNZ071>073-080-081-089-090-097-098-050300-
   Southwest Minnesota

CITY           SKY/WX    TMP DP  RH WIND       PRES   REMARKS
MONTEVIDEO     CLEAR     59  30  33 NE7       30.00R
GRANITE FALLS  CLEAR     61  30  31 NW3       30.00R
CANBY          CLEAR     63  32  31 W3        30.00S
MARSHALL       CLEAR     60  30  32 N6        29.99R
REDWOOD FALLS  CLEAR     61  28  28 N6        29.97S
OLIVIA         CLEAR     55  30  38 N7        29.98R
PIPESTONE      CLEAR     59  27  29 N3        30.00S
WINDOM         CLEAR     54  34  47 CALM      29.98R
WORTHINGTON    CLEAR     55  37  50 NW7       30.00R
JACKSON        CLEAR     55  32  41 NW8       29.98S
TRACY          CLEAR     59  32  35 N5        29.99S
SLAYTON        CLEAR     58  31  36 NW8       30.01R
$$
MNZ065>067-074>077-082>085-091>093-050300-
   South Central Minnesota

CITY           SKY/WX    TMP DP  RH WIND       PRES   REMARKS
MANKATO        CLEAR     59  23  25 NE7       29.96S
NEW ULM        CLEAR     63  27  25 N3        29.96S
ST JAMES       CLEAR     54  27  35 N6        29.98R
FAIRMONT       CLEAR     61  28  29 N8        29.96R
GLENCOE        CLEAR     60  29  31 N3        29.96S
FARIBAULT      CLEAR     55  27  33 NW3       29.96R
OWATONNA       CLEAR     52  25  35 NW3       29.96R
WASECA         CLEAR     54  28  37 N3        29.97R
ALBERT LEA     CLEAR     55  27  33 N7        29.95R
$$
MNZ078>079-086>088-094>096-050300-
   Southeast Minnesota

CITY           SKY/WX    TMP DP  RH WIND       PRES   REMARKS
ROCHESTER      CLEAR     52  28  39 N8        29.95R
RED WING       CLEAR     55  23  28 NE5       29.95R
STANTON        CLEAR     55  23  28 N5        29.94R
DODGE CENTER   CLEAR     52  23  32 N5        29.95S
WINONA         CLEAR     55  27  33 CALM      29.94R
AUSTIN         CLEAR     54  28  37 N6        29.95R
PRESTON        CLEAR     51  27  39 N7        29.94R
$$
ABBREVIATIONS USED IN REMARKS
   TC - TEMPERATURES IN CELSIUS
  WCI - WIND CHILL INDEX
   HX - HEAT INDEX
  VSB - VISIBILITY
$$



USA.gov is the U.S. government's official web portal to all federal, state and local government web resources and services.